EHI
0 0 0 0 0 0 0 0 0 0 0 0 0 2 5 7 9 12 15 17 17 16 15 16 17 21 24 20 16 15 14 10 7 6 6 4 3 2 1 0 1 2 1 0
0 0 0 0 0 0 0 0 0 0 0 0 0 1 3 5 7 11 16 18 19 18 17 19 21 25 28 27 22 20 17 12 9 8 6 4 3 2 1 0 1 2 2 1
0 0 0 0 0 0 0 0 0 0 0 0 0 0 1 4 6 9 14 19 22 22 21 22 27 31 34 35 31 26 21 16 13 10 8 6 4 2 0 0 1 3 3 2
0 0 0 0 0 0 0 0 0 0 0 0 0 0 1 4 7 9 13 19 23 25 25 26 30 34 37 38 37 32 27 23 18 15 12 9 6 3 1 1 3 5 5 4
0 0 0 0 0 0 0 0 0 0 0 0 0 0 1 4 8 11 14 18 22 24 27 29 32 36 39 39 39 37 34 30 26 21 16 13 10 6 3 3 5 6 6 6
0 0 0 0 0 0 0 0 0 0 0 0 0 0 1 3 8 13 16 19 21 23 28 32 34 37 39 39 38 38 37 34 31 26 20 16 14 10 6 5 6 7 8 7
0 0 0 0 0 0 0 0 0 0 0 0 0 0 1 3 6 12 16 20 23 25 30 35 38 39 39 39 38 39 37 34 32 29 24 20 18 15 10 7 7 9 9 9
0 0 0 0 0 0 0 0 0 0 0 0 0 1 2 3 5 9 14 19 25 27 29 34 37 38 38 38 39 41 39 35 32 30 27 25 22 18 13 9 9 9 10 10
0 0 0 0 0 0 0 0 0 0 0 0 0 1 2 2 4 8 13 19 24 26 27 29 31 33 35 37 40 42 41 38 35 34 32 30 27 21 15 11 10 9 9 9
0 0 0 0 0 0 0 0 0 0 0 0 0 0 1 3 5 10 14 18 22 24 24 25 27 30 33 36 39 41 40 40 39 38 35 32 30 25 20 16 13 11 9 8
0 0 0 0 0 0 0 0 0 0 0 0 0 0 1 4 9 13 17 19 21 23 23 25 28 31 34 36 38 38 38 38 40 38 35 33 31 27 23 19 16 13 11 10
0 0 0 0 0 0 0 0 0 0 0 0 0 0 1 5 11 16 20 22 22 23 24 26 29 32 32 34 36 35 35 37 39 37 34 32 31 27 22 20 18 16 14 12
0 0 0 0 0 0 0 0 0 0 0 0 0 1 2 5 11 16 20 22 22 23 24 26 28 29 29 29 30 33 35 37 37 35 32 30 29 26 22 20 19 17 16 16
0 0 0 0 0 0 0 0 0 0 0 0 1 2 3 6 9 13 17 19 21 22 23 24 25 25 23 22 24 29 33 33 33 31 29 28 27 25 22 20 17 16 17 16
0 0 0 0 0 0 0 0 0 0 0 1 1 2 3 5 7 12 17 20 22 22 22 22 22 20 18 18 20 23 26 28 29 27 25 27 28 27 23 19 16 15 16 16
0 0 0 0 0 0 0 0 0 0 0 1 2 2 3 6 10 14 18 21 23 24 23 23 22 21 18 17 19 20 21 23 26 26 24 25 29 29 26 22 19 18 16 16
0 0 0 0 0 0 0 0 0 0 1 2 3 3 5 10 15 16 17 18 20 22 24 25 24 22 20 18 18 19 19 21 24 25 24 23 24 26 24 22 20 19 16 15
0 0 0 0 0 0 0 0 0 1 1 2 4 4 6 10 14 14 11 11 13 17 20 22 21 20 19 17 16 15 15 16 18 20 20 18 18 19 20 19 18 16 14 12
0 0 0 0 0 0 0 0 0 1 1 3 5 6 6 8 11 9 6 6 10 13 16 17 17 17 17 15 14 13 11 10 11 13 15 15 15 16 18 17 16 15 13 11
0 0 0 0 0 0 0 0 0 0 1 2 5 7 8 8 7 4 3 5 8 11 13 14 16 18 17 16 15 12 10 8 8 8 9 11 14 16 17 15 14 13 13 11
0 0 0 0 0 0 0 0 0 0 0 1 3 6 8 6 4 3 4 5 7 9 10 11 13 16 17 16 14 11 8 6 6 5 5 7 9 12 13 13 11 11 11 10
0 0 0 0 0 0 1 1 1 0 0 0 1 4 5 4 2 3 5 7 8 9 9 10 11 12 12 12 11 8 5 4 4 3 3 4 6 8 9 10 10 10 10 10
0 0 0 1 1 1 1 2 1 0 1 1 2 3 4 4 3 4 7 9 11 11 10 9 8 8 8 8 7 6 4 3 4 4 3 3 4 5 6 6 8 9 9 9
0 0 0 1 1 1 1 1 0 0 1 2 2 3 4 5 5 5 8 9 9 10 9 7 6 6 6 6 6 5 4 4 5 5 3 1 2 2 2 3 5 6 7 7
0 0 0 1 1 0 0 0 0 0 0 1 2 3 4 6 6 7 7 7 6 7 6 5 4 4 5 5 5 4 3 3 4 4 2 1 1 1 0 0 1 2 3 4
0 0 0 0 0 0 0 0 0 0 1 2 2 3 4 6 6 7 6 5 5 5 4 4 4 4 4 4 3 2 2 3 4 3 2 1 2 2 1 0 0 0 1 1
Wind_Speed
1 3 2 6 7 8 5 3 4 5 4 2 5 8 10 11 11 11 10 11 11 11 10 10 11 11 10 8 7 7 7 6 4 3 2 2 2 2 1 2 4 4 3 3
4 4 9 6 5 5 4 4 4 4 4 4 4 6 8 11 13 13 14 14 13 11 9 10 10 11 11 10 9 8 7 7 6 4 3 3 2 2 2 2 3 4 4 3
5 8 5 3 2 3 5 6 6 4 1 2 4 0 4 6 7 9 11 12 13 15 14 12 11 11 11 11 11 9 8 7 6 5 3 1 1 1 0 1 2 3 4 4
5 6 3 3 5 4 6 8 6 3 2 1 2 2 5 6 6 10 11 10 12 12 12 12 12 12 12 11 10 9 8 7 6 6 4 4 3 3 3 3 3 3 4 4
6 3 3 5 7 5 6 5 5 4 3 1 1 2 5 3 5 9 11 12 12 12 14 14 14 13 11 11 10 8 8 7 6 6 6 5 4 3 2 2 3 3 3 3
6 4 4 6 6 4 2 3 4 4 5 1 4 3 4 4 8 7 8 10 11 12 12 11 11 10 9 9 9 8 8 7 7 7 6 6 6 5 3 3 3 3 2 2
6 6 5 3 2 4 5 6 4 5 4 4 3 2 5 6 6 8 8 9 10 10 11 11 11 10 10 10 10 9 9 8 7 7 7 6 6 6 6 5 5 4 3 3
2 6 4 1 3 3 2 8 7 4 4 4 3 1 5 3 3 5 6 7 9 9 9 11 12 11 11 12 11 10 10 8 8 8 7 6 6 4 4 4 4 4 4 4
5 5 5 3 2 5 1 2 7 8 2 1 3 2 4 4 5 4 5 6 7 8 8 9 9 9 9 10 11 11 10 9 9 8 7 6 6 5 5 4 4 3 3 4
7 3 5 5 4 3 3 3 5 5 4 1 3 2 3 3 3 4 5 5 6 7 7 7 7 7 6 7 7 8 9 9 8 7 6 6 6 6 5 4 4 4 4 4
4 4 4 3 1 2 1 2 4 4 5 6 2 5 5 7 6 7 6 5 6 7 8 7 6 6 5 5 5 5 7 7 7 7 7 5 5 5 4 4 5 5 4 4
2 5 1 5 5 3 3 3 5 4 2 4 4 5 3 6 6 8 7 6 6 6 6 6 6 6 5 4 4 4 5 6 7 7 6 6 5 5 5 5 5 4 5 5
4 6 2 7 8 6 2 0 3 5 5 3 4 4 2 3 4 5 6 7 6 6 6 6 5 5 5 4 4 3 3 5 5 6 6 5 5 5 5 6 5 5 5 4
7 6 7 7 6 3 2 3 0 5 3 3 5 5 2 3 4 4 5 6 7 6 6 6 5 4 4 4 4 3 3 3 4 5 5 6 6 6 6 6 5 5 5 5
7 4 3 3 3 1 1 3 2 1 5 7 6 6 6 6 6 5 6 6 7 6 5 6 5 4 3 3 3 2 2 3 3 4 5 6 6 5 4 4 4 4 4 5
5 4 2 2 2 2 2 3 2 1 1 4 5 2 4 4 4 4 5 7 7 6 5 6 6 6 5 4 4 3 2 2 2 3 4 4 4 4 4 4 4 4 4 4
2 4 3 2 2 4 3 2 1 1 0 5 5 5 3 5 5 4 4 5 4 4 5 4 5 5 5 4 4 3 3 2 2 2 2 3 4 4 4 4 3 4 4 4
6 4 4 2 2 2 7 3 3 4 2 2 4 4 7 8 6 5 5 6 4 3 4 3 3 3 3 3 3 3 2 2 2 1 2 3 3 4 3 3 3 3 3 3
6 7 4 3 3 3 5 3 0 4 2 2 5 5 5 7 8 4 2 4 4 4 3 3 3 3 3 2 3 3 2 2 1 1 1 3 3 3 3 4 4 3 3 3
5 6 6 4 4 5 6 5 1 6 2 3 4 6 5 6 4 2 1 3 3 3 2 2 2 3 3 2 2 3 1 1 1 2 2 2 2 3 4 4 4 3 3 4
4 4 3 3 3 4 5 5 3 4 5 2 3 5 5 4 5 4 3 3 3 3 3 3 3 2 1 1 3 2 1 1 2 1 1 1 2 2 3 4 3 3 4 4
3 2 1 2 2 5 5 3 4 5 3 2 3 4 5 4 3 3 4 3 4 3 3 3 3 1 1 2 3 2 0 2 1 1 1 2 2 2 2 2 3 3 3 4
2 4 5 5 5 5 1 3 3 4 5 4 4 4 6 5 4 3 3 3 3 3 2 1 2 1 1 1 2 1 2 1 0 0 1 2 3 2 2 2 3 3 3 3
3 2 4 2 0 1 2 4 4 5 5 4 5 5 5 4 3 3 2 1 2 2 1 1 2 1 1 1 0 1 2 1 1 1 2 2 2 3 2 2 2 3 3 4
3 1 3 1 1 3 3 2 3 4 5 5 5 4 4 4 2 2 1 1 1 1 0 1 1 1 1 1 2 2 2 1 1 2 2 3 3 3 3 3 3 4 4 4
2 3 4 4 5 4 3 2 2 4 4 4 4 4 3 3 2 1 1 1 1 1 1 1 0 0 1 2 2 3 2 1 1 2 3 2 2 2 2 2 3 4 4 5
Wind_Direction
322 70 237 231 203 194 196 209 237 240 212 152 165 175 187 183 182 179 179 182 182 185 180 170 166 165 163 164 164 164 160 167 159 155 159 157 184 199 201 201 199 203 202 195
9 267 239 228 214 201 206 223 253 275 217 171 177 194 193 188 193 187 185 187 184 177 170 172 168 168 170 169 172 171 172 172 173 174 171 169 170 190 199 209 206 206 201 199
216 244 245 224 241 205 240 215 218 226 344 66 114 84 200 210 202 197 196 191 182 180 178 177 172 172 172 176 179 181 182 176 175 170 150 139 98 45 326 225 218 216 200 198
247 252 255 255 244 214 245 231 199 178 110 256 144 198 251 208 198 199 199 190 185 184 179 178 176 176 178 183 180 178 176 173 173 167 165 174 185 201 217 210 212 226 215 211
255 255 256 255 241 215 229 226 179 180 137 63 338 134 277 191 202 204 193 187 185 183 181 182 180 178 178 177 176 177 173 177 177 176 180 186 201 212 216 208 211 225 234 229
252 259 225 234 253 228 222 43 44 51 71 11 254 148 265 222 207 195 186 184 183 179 178 180 178 173 173 174 177 176 174 183 184 183 185 191 198 203 202 211 215 223 232 239
300 296 274 238 301 329 65 81 38 5 15 260 273 131 244 237 198 176 174 177 176 174 171 170 170 173 174 175 179 178 179 188 188 186 190 195 197 197 204 209 210 210 218 226
223 290 276 257 184 203 171 136 155 187 210 273 339 204 265 268 133 138 145 149 157 168 174 174 176 176 179 180 182 181 185 193 192 192 198 199 196 198 207 205 201 208 212 221
179 251 285 274 200 145 152 182 169 138 133 91 297 300 335 37 83 99 117 126 146 156 167 174 173 176 180 182 186 189 188 192 195 196 196 198 197 200 206 208 208 217 222 227
165 217 283 294 37 18 163 166 89 106 137 187 293 274 217 202 144 129 127 138 145 145 147 155 164 173 182 182 183 189 189 193 192 191 197 203 205 207 206 202 214 221 225 229
136 149 304 359 127 228 350 38 95 113 148 150 198 267 222 189 167 155 150 144 142 143 150 155 158 159 155 153 167 176 186 189 188 190 197 202 201 205 203 209 220 224 226 225
145 119 269 277 269 211 157 160 134 139 219 153 154 260 267 172 156 145 147 144 138 138 143 152 153 144 142 146 156 180 185 188 193 188 186 199 201 200 203 217 226 227 229 230
131 107 65 341 342 356 19 11 134 129 117 132 147 246 290 119 120 136 143 137 133 130 123 124 125 132 148 160 169 176 179 192 187 181 185 200 210 208 213 223 226 224 229 236
111 109 153 188 219 243 313 314 30 107 131 179 197 199 242 155 151 151 146 140 138 137 135 130 136 146 158 165 172 171 193 191 183 183 191 206 216 220 220 222 226 227 225 230
101 122 164 190 207 142 314 303 312 170 181 176 200 183 201 188 172 155 140 133 122 129 134 137 150 161 161 159 171 180 200 194 185 188 205 220 224 221 215 217 222 227 225 231
76 119 89 4 5 36 2 343 346 338 150 146 137 172 216 168 129 118 125 132 132 138 142 147 152 153 158 169 177 176 191 194 183 195 218 227 223 214 209 212 215 219 224 228
93 115 105 267 312 42 339 268 153 66 136 148 166 204 160 118 121 141 141 134 138 141 131 131 151 160 164 171 169 169 180 174 173 211 228 217 209 208 213 214 211 214 216 217
138 116 128 141 62 203 245 265 118 107 57 78 131 138 143 140 133 123 132 134 132 134 132 135 141 157 171 168 164 165 148 143 162 202 222 216 208 208 208 212 218 218 212 217
142 137 126 126 161 249 295 313 100 120 34 29 110 116 125 123 87 56 93 124 136 141 145 151 146 140 142 151 161 143 137 138 148 203 228 227 214 212 209 217 228 227 220 235
64 102 119 132 154 215 246 281 243 103 57 339 103 121 121 101 99 229 211 116 113 108 112 113 98 94 116 150 137 121 126 135 234 248 250 262 235 223 223 223 226 231 225 234
25 40 103 148 181 240 260 292 65 121 212 247 124 131 128 138 177 194 137 107 110 108 108 103 86 79 98 122 105 99 91 238 249 249 274 306 260 239 237 231 224 226 230 233
155 133 157 123 151 245 295 36 119 189 186 122 100 110 112 108 100 98 102 107 104 99 101 106 98 69 43 87 101 90 319 267 291 344 349 333 308 278 274 247 250 248 241 243
139 178 172 170 202 239 307 112 153 144 114 101 98 103 107 98 91 86 83 93 97 101 102 108 115 85 9 53 116 125 261 254 231 302 295 296 304 296 284 258 259 271 260 251
321 50 89 69 325 19 60 70 62 89 111 115 110 108 102 110 124 118 122 110 97 99 108 105 98 72 342 335 342 224 249 245 196 246 275 281 286 292 295 277 247 243 245 247
258 44 69 64 277 29 22 56 85 73 80 85 80 89 105 110 109 116 136 150 127 96 93 113 127 147 290 313 305 296 293 291 287 279 279 283 281 281 287 285 267 252 243 234
270 170 157 209 222 180 227 250 101 88 79 86 89 72 70 111 130 116 129 137 117 97 72 52 41 273 281 292 300 301 299 284 279 290 283 275 276 276 270 276 298 303 277 277